Date String (YYYY-MM-DD hh:mm:ss) UTC,Instrument flags,Ambient pressure (hPa),Sample flow (lpm),Bypass flow (lpm),Sample temperature (°C),Ambient temperature (°C),ASC tube jacket temperature (°C),LED temperature (°C),Box temperature (°C),Sample RH (%),Span deviation,Mass concentration (μg/m³),Mass concentration (μg/m³),Mass concentration (μg/m³)
DateTimeUTC,F1_M11,P_M11,Q1_M11,Q2_M11,T1_M11,T2_M11,T3_M11,T4_M11,T5_M11,U1_M11,ZSPAN_M11,X2_M11,X0_M11,X1_M11
2023-05-17 00:00:00,,0831.6,4.99,0.00,29.4,27.6,00.0,37.7,31.1,18.0,0000.0,0005.08,0012.61,0003.74
2023-05-17 00:01:00,,0831.6,5.00,0.00,29.4,27.7,00.0,37.7,31.1,18.0,0000.0,0005.05,0012.23,0003.73
2023-05-17 00:02:00,,0831.6,5.01,0.00,29.4,27.9,00.0,37.7,31.1,18.0,0000.0,0005.01,0011.91,0003.72
2023-05-17 00:03:00,,0831.6,5.00,0.00,29.4,27.9,00.0,37.7,31.1,18.1,0000.0,0004.99,0012.73,0003.71
2023-05-17 00:04:00,,0831.5,5.00,0.00,29.5,28.0,00.0,37.7,31.2,18.2,0000.0,0005.03,0012.81,0003.70
2023-05-17 00:05:00,,0831.6,5.00,0.00,29.5,28.1,00.0,37.8,31.2,18.2,0000.0,0005.08,0013.18,0003.71
2023-05-17 00:06:00,,0831.5,5.00,0.00,29.5,28.2,00.0,37.8,31.2,18.2,0000.0,0005.14,0013.24,0003.71
2023-05-17 00:07:00,,0831.5,5.00,0.00,29.5,28.2,00.0,37.8,31.2,18.4,0000.0,0005.16,0013.21,0003.71
2023-05-17 00:08:00,,0831.6,5.00,0.00,29.5,28.3,00.0,37.8,31.3,18.5,0000.0,0005.18,0013.18,0003.72
2023-05-17 00:09:00,,0831.5,5.00,0.00,29.6,28.0,00.0,37.8,31.3,18.1,0000.0,0005.13,0012.94,0003.71
2023-05-17 00:10:00,,0831.6,4.98,0.00,29.5,26.4,00.0,37.8,31.0,18.1,0000.0,0005.09,0012.45,0003.70
2023-05-17 00:11:00,,0831.5,5.01,0.00,29.5,25.6,00.0,37.7,30.8,18.2,0000.0,0005.03,0012.24,0003.69
2023-05-17 00:12:00,,0831.5,5.01,0.00,29.4,25.7,00.0,37.6,30.7,18.3,0000.0,0005.03,0012.20,0003.69
2023-05-17 00:13:00,,0831.5,5.00,0.00,29.3,26.0,00.0,37.7,30.7,19.0,0000.0,0005.04,0012.54,0003.69
2023-05-17 00:14:00,,0831.5,4.99,0.00,29.3,26.3,00.0,37.7,30.8,18.9,0000.0,0005.05,0012.18,0003.70
2023-05-17 00:15:00,,0831.5,5.00,0.00,29.3,26.6,00.0,37.7,30.9,19.0,0000.0,0005.07,0012.29,0003.71
2023-05-17 00:16:00,,0831.5,5.01,0.00,29.3,26.9,00.0,37.7,30.9,19.0,0000.0,0005.08,0012.85,0003.71
2023-05-17 00:17:00,,0831.5,4.99,0.00,29.3,27.2,00.0,37.7,30.9,19.2,0000.0,0005.00,0012.50,0003.70
2023-05-17 00:18:00,,0831.5,4.99,0.00,29.3,27.4,00.0,37.7,31.0,19.4,0000.0,0004.98,0012.36,0003.71
2023-05-17 00:19:00,,0831.5,4.99,0.00,29.4,27.6,00.0,37.7,31.0,19.3,0000.0,0004.95,0012.25,0003.69
2023-05-17 00:20:00,,0831.5,5.01,0.00,29.4,27.7,00.0,37.7,31.1,19.1,0000.0,0004.93,0012.13,0003.68
2023-05-17 00:21:00,,0831.6,5.00,0.00,29.4,27.8,00.0,37.7,31.1,18.6,0000.0,0004.90,0011.95,0003.68
2023-05-17 00:22:00,,0831.6,5.01,0.00,29.4,27.9,00.0,37.7,31.1,18.6,0000.0,0004.92,0011.77,0003.69
2023-05-17 00:23:00,,0831.6,5.00,0.00,29.4,28.0,00.0,37.7,31.1,19.1,0000.0,0004.95,0012.17,0003.69
2023-05-17 00:24:00,,0831.6,5.00,0.00,29.5,28.1,00.0,37.7,31.1,19.5,0000.0,0005.02,0012.84,0003.68
2023-05-17 00:25:00,,0831.7,5.00,0.00,29.5,28.1,00.0,37.7,31.2,20.3,0000.0,0005.01,0012.36,0003.68
2023-05-17 00:26:00,,0831.7,5.00,0.00,29.5,28.2,00.0,37.8,31.2,21.0,0000.0,0004.98,0012.62,0003.68
2023-05-17 00:27:00,,0831.7,5.00,0.00,29.5,28.2,00.0,37.8,31.2,21.8,0000.0,0004.99,0012.63,0003.69
2023-05-17 00:28:00,,0831.8,5.00,0.00,29.5,28.2,00.0,37.8,31.2,20.2,0000.0,0005.09,0012.72,0003.69
2023-05-17 00:29:00,,0831.8,4.99,0.00,29.6,27.6,00.0,37.8,31.2,18.1,0000.0,0005.07,0012.75,0003.66
2023-05-17 00:30:00,,0831.8,5.01,0.00,29.5,25.9,00.0,37.7,30.9,17.5,0000.0,0005.04,0012.69,0003.63
2023-05-17 00:31:00,,0831.8,5.01,0.00,29.4,25.5,00.0,37.6,30.8,18.9,0000.0,0005.02,0012.76,0003.60
2023-05-17 00:32:00,,0831.8,5.01,0.00,29.3,25.6,00.0,37.6,30.7,19.5,0000.0,0005.01,0013.08,0003.57
2023-05-17 00:33:00,,0831.8,4.99,0.00,29.3,25.9,00.0,37.6,30.7,20.5,0000.0,0004.98,0013.88,0003.52
2023-05-17 00:34:00,,0831.9,4.98,0.00,29.3,26.2,00.0,37.6,30.7,20.6,0000.0,0004.94,0014.44,0003.46
2023-05-17 00:35:00,,0831.8,5.01,0.00,29.2,26.5,00.0,37.6,30.7,19.7,0000.0,0004.81,0013.86,0003.40
2023-05-17 00:36:00,,0831.8,5.01,0.00,29.2,26.7,00.0,37.6,30.8,20.6,0000.0,0004.74,0013.53,0003.33
2023-05-17 00:37:00,,0831.9,4.99,0.00,29.2,26.9,00.0,37.6,30.8,20.9,0000.0,0004.66,0013.35,0003.27
2023-05-17 00:38:00,,0832.0,4.99,0.00,29.2,27.1,00.0,37.6,30.8,21.4,0000.0,0004.63,0012.48,0003.20
2023-05-17 00:39:00,,0831.8,5.01,0.00,29.2,27.2,00.0,37.6,30.8,21.3,0000.0,0004.58,0012.45,0003.15
2023-05-17 00:40:00,,0831.9,5.01,0.00,29.2,27.3,00.0,37.6,30.8,20.6,0000.0,0004.61,0012.93,0003.15
2023-05-17 00:41:00,,0831.9,5.00,0.00,29.2,27.4,00.0,37.6,30.9,20.0,0000.0,0004.63,0013.12,0003.15
2023-05-17 00:42:00,,0832.0,4.98,0.00,29.3,27.5,00.0,37.6,30.9,20.2,0000.0,0004.67,0013.21,0003.15
2023-05-17 00:43:00,,0832.1,5.00,0.00,29.3,27.6,00.0,37.6,30.9,21.4,0000.0,0004.70,0013.27,0003.17
2023-05-17 00:44:00,,0832.2,5.00,0.00,29.3,27.6,00.0,37.6,30.9,22.5,0000.0,0004.75,0013.24,0003.19
2023-05-17 00:45:00,,0832.2,5.00,0.00,29.3,27.7,00.0,37.6,30.9,22.6,0000.0,0004.73,0012.52,0003.21
2023-05-17 00:46:00,,0832.2,5.00,0.00,29.3,27.7,00.0,37.6,30.9,22.4,0000.0,0004.73,0012.21,0003.22
2023-05-17 00:47:00,,0832.2,5.01,0.00,29.3,27.7,00.0,37.6,30.9,22.1,0000.0,0004.70,0012.36,0003.19
2023-05-17 00:48:00,,0832.1,5.01,0.00,29.3,27.8,00.0,37.6,31.0,22.3,0000.0,0004.65,0012.15,0003.16
2023-05-17 00:49:00,,0832.2,4.99,0.00,29.3,27.8,00.0,37.6,31.0,22.1,0000.0,0004.52,0012.30,0003.12
2023-05-17 00:50:00,,0832.2,4.99,0.00,29.3,27.8,00.0,37.7,31.0,21.4,0000.0,0004.33,0011.88,0003.02
2023-05-17 00:51:00,,0832.2,5.01,0.00,29.3,27.9,00.0,37.7,31.0,21.4,0000.0,0004.22,0011.44,0002.88
2023-05-17 00:52:00,,0832.2,5.01,0.00,29.4,27.9,00.0,37.7,31.0,21.9,0000.0,0004.11,0012.34,0002.75
2023-05-17 00:53:00,,0832.1,5.01,0.00,29.4,27.9,00.0,37.7,31.0,21.9,0000.0,0003.96,0012.66,0002.60
2023-05-17 00:54:00,,0832.1,4.98,0.00,29.4,27.9,00.0,37.7,31.0,21.8,0000.0,0003.77,0012.38,0002.43
2023-05-17 00:55:00,,0832.0,5.00,0.00,29.4,27.9,00.0,37.7,31.1,21.7,0000.0,0003.61,0011.55,0002.24
2023-05-17 00:56:00,,0832.1,5.01,0.00,29.4,28.0,00.0,37.7,31.1,21.5,0000.0,0003.45,0011.01,0002.06
2023-05-17 00:57:00,,0832.0,5.00,0.00,29.4,28.0,00.0,37.7,31.0,21.0,0000.0,0003.32,0010.63,0001.93
2023-05-17 00:58:00,,0832.0,4.99,0.00,29.4,28.0,00.0,37.7,31.0,21.0,0000.0,0003.25,0010.75,0001.84
2023-05-17 00:59:00,,0832.0,5.00,0.00,29.4,28.0,00.0,37.7,31.1,21.0,0000.0,0003.17,0010.45,0001.78
